N2IVN Vineland NJ US current weather conditions

sailwx.info

Wind from 095

Air temperature 26.7° C
Dewpoint 23.3° C

Last reported at 2020-Aug-06 16:10 UTC.
Time now 2020-Aug-06 16:37 UTC

Location: N 39°30' W 075°01'.
View on Google Maps.

See reports from other nearby stations

  
Tides and Currents Weather Stations Pressure Air Temp Water Temp Dewpoint Dewpoint Depression Visibility Wind Speed Wind Dir Waves Ship Positions
date/time (UTC)wind fromknots sea level pressurealtimeterstation pressurevisibilityair tempwater tempwave heightnotes
2020-Aug-06 16:10 095 26.7
2020-Aug-06 16:05 090 26.7
2020-Aug-06 16:00 045 26.7
2020-Aug-06 15:55 131 26.7
2020-Aug-06 15:50 237 26.7
2020-Aug-06 15:45 071 26.7
2020-Aug-06 15:40 356 1 gusting 6 26.7
2020-Aug-06 15:35 112 26.7
2020-Aug-06 15:30 110 26.7
2020-Aug-06 15:20 086 0 gusting 5 26.7
2020-Aug-06 15:15 26.1
2020-Aug-06 15:10 005 25.6
2020-Aug-06 15:05 25.6
2020-Aug-06 14:55 070 25.6
2020-Aug-06 14:50 045 26.1
2020-Aug-06 14:45 344 0 gusting 4 26.7
2020-Aug-06 14:40 048 1 gusting 4 27.2
2020-Aug-06 14:35 021 27.8
2020-Aug-06 14:30 058 0 gusting 4 28.3
2020-Aug-06 14:25 020 28.3
2020-Aug-06 14:20 165 0 gusting 4 27.8
2020-Aug-06 14:15 071 26.1
2020-Aug-06 14:10 098 0 gusting 5 24.4
2020-Aug-06 14:05 112 22.8
2020-Aug-06 14:00 084 22.2
2020-Aug-06 13:55 068 21.7
2020-Aug-06 13:50 218 0 gusting 1 21.7
2020-Aug-06 13:45 333 21.1
2020-Aug-06 13:40 087 21.1
2020-Aug-06 13:35 093 21.1
2020-Aug-06 13:30 106 21.1
2020-Aug-06 13:25 090 21.1
2020-Aug-06 13:20 078 21.1
2020-Aug-06 13:15 071 21.1
2020-Aug-06 13:10 001 0 gusting 4 21.1
2020-Aug-06 13:05 022 1 gusting 2 21.1
2020-Aug-06 13:00 20.6
2020-Aug-06 12:55 018 0 gusting 4 20.6
2020-Aug-06 12:50 20.6
2020-Aug-06 12:45 002 2 gusting 5 20.6
2020-Aug-06 12:40 005 2 gusting 6 21.1
2020-Aug-06 12:35 21.1
2020-Aug-06 12:30 028 21.1
2020-Aug-06 12:25 010 2 gusting 5 21.1
2020-Aug-06 12:20 131 0 gusting 5 21.1
2020-Aug-06 12:15 221 2 gusting 6 21.1
2020-Aug-06 12:10 217 4 gusting 6 20.6
2020-Aug-06 12:05 291 20.6
2020-Aug-06 12:00 20.6
2020-Aug-06 11:55 21.1
2020-Aug-06 11:50 21.1
2020-Aug-06 11:45 018 21.1
2020-Aug-06 11:40 320 21.1
2020-Aug-06 11:35 248 21.1
2020-Aug-06 11:25 240 21.1
2020-Aug-06 11:20 202 21.1
2020-Aug-06 11:10 180 21.1
2020-Aug-06 11:05 21.1
2020-Aug-06 11:00 017 21.1
2020-Aug-06 10:55 045 21.1
2020-Aug-06 10:50 135 21.1
2020-Aug-06 10:45 135 21.1
2020-Aug-06 10:40 160 0 gusting 5 21.1
2020-Aug-06 10:05 248 21.7
2020-Aug-06 10:00 292 21.7
2020-Aug-06 09:55 292 21.7
2020-Aug-06 09:50 292 21.7
2020-Aug-06 09:45 292 21.7
2020-Aug-06 09:40 292 21.1
2020-Aug-06 09:35 292 21.1
2020-Aug-06 09:30 292 21.1
2020-Aug-06 09:25 292 21.1
2020-Aug-06 09:20 292 21.1
2020-Aug-06 09:15 292 21.1
2020-Aug-06 09:10 292 21.1
2020-Aug-06 09:05 292 21.1
2020-Aug-06 09:00 292 21.1
2020-Aug-06 08:55 292 21.1
2020-Aug-06 08:50 292 21.1
2020-Aug-06 08:40 292 21.7
2020-Aug-06 08:35 292 21.7
2020-Aug-06 08:30 292 21.7
2020-Aug-06 08:25 292 21.7
2020-Aug-06 08:20 292 21.7
2020-Aug-06 08:15 292 21.7
2020-Aug-06 08:10 292 21.7
2020-Aug-06 08:05 292 21.7
2020-Aug-06 08:00 292 21.7
2020-Aug-06 07:55 292 21.7
2020-Aug-06 07:45 292 21.7
2020-Aug-06 07:40 292 21.7
2020-Aug-06 07:35 292 21.7
2020-Aug-06 07:25 292 21.1
2020-Aug-06 07:20 292 21.1
2020-Aug-06 07:15 292 21.1
2020-Aug-06 07:10 293 21.1
2020-Aug-06 07:05 292 21.1
2020-Aug-06 07:00 292 21.1
2020-Aug-06 06:55 292 21.7
2020-Aug-06 06:50 292 21.7
2020-Aug-06 06:45 292 21.7
2020-Aug-06 06:40 292 21.7
2020-Aug-06 06:35 292 21.7
2020-Aug-06 06:30 292 21.7
2020-Aug-06 06:25 292 21.7
2020-Aug-06 06:20 292 21.7
2020-Aug-06 06:10 292 21.7
2020-Aug-06 06:05 292 21.7
2020-Aug-06 06:00 292 21.7
2020-Aug-06 05:55 292 21.7
2020-Aug-06 05:50 292 21.7
2020-Aug-06 05:45 292 21.7
2020-Aug-06 05:40 292 21.7
2020-Aug-06 05:35 292 21.7
2020-Aug-06 05:30 292 21.7
2020-Aug-06 05:25 292 21.7
2020-Aug-06 05:20 292 21.7
2020-Aug-06 05:15 270 21.7
2020-Aug-06 05:10 225 21.7
2020-Aug-06 05:05 225 22.2
2020-Aug-06 05:00 225 22.2
2020-Aug-06 04:55 225 22.2
2020-Aug-06 04:50 225 22.2
2020-Aug-06 04:45 225 22.2
2020-Aug-06 04:40 225 22.2
2020-Aug-06 04:35 225 22.2
2020-Aug-06 04:30 225 22.2
2020-Aug-06 04:25 225 22.8
2020-Aug-06 04:20 225 22.8
2020-Aug-06 04:15 225 22.8
2020-Aug-06 04:10 225 22.8
2020-Aug-06 04:05 225 22.8
2020-Aug-06 03:55 225 22.8
2020-Aug-06 03:50 225 22.8
2020-Aug-06 03:45 225 22.8
2020-Aug-06 03:40 225 22.8
2020-Aug-06 03:35 225 22.8
2020-Aug-06 03:30 225 22.8
2020-Aug-06 03:25 225 22.8
2020-Aug-06 03:20 225 23.3
2020-Aug-06 03:15 225 23.3
2020-Aug-06 03:10 225 23.3
2020-Aug-06 03:05 225 23.3
2020-Aug-06 02:55 225 23.3
2020-Aug-06 02:50 315 23.3
2020-Aug-06 02:40 315 23.9
2020-Aug-06 02:35 315 23.9
2020-Aug-06 02:25 315 23.9
2020-Aug-06 02:20 315 24.4
2020-Aug-06 02:15 315 24.4
2020-Aug-06 02:10 315 24.4
2020-Aug-06 02:05 315 24.4
2020-Aug-06 02:00 315 24.4
2020-Aug-06 01:55 315 24.4
2020-Aug-06 01:50 315 25.0
2020-Aug-06 01:45 315 25.0
2020-Aug-06 01:40 315 25.0
2020-Aug-06 01:35 315 25.0
2020-Aug-06 01:30 315 25.0
2020-Aug-06 01:25 315 25.0
2020-Aug-06 01:20 315 25.6
2020-Aug-06 01:15 315 25.6
2020-Aug-06 01:10 315 25.6
2020-Aug-06 01:05 315 25.6
2020-Aug-06 01:00 315 25.6
2020-Aug-06 00:55 315 25.6
2020-Aug-06 00:50 315 25.6
2020-Aug-06 00:40 315 25.6
2020-Aug-06 00:35 315 26.1
2020-Aug-06 00:30 326 26.1
2020-Aug-06 00:25 26.1
2020-Aug-06 00:20 26.7
2020-Aug-06 00:15 26.7
2020-Aug-06 00:10 26.7
2020-Aug-06 00:05 27.2
2020-Aug-06 00:00 27.2
2020-Aug-05 23:55 27.8
2020-Aug-05 23:50 27.8
2020-Aug-05 23:45 28.3
2020-Aug-05 23:40 28.3
2020-Aug-05 23:35 28.3
2020-Aug-05 23:30 28.9
2020-Aug-05 23:25 28.9
2020-Aug-05 23:20 28.9
2020-Aug-05 23:15 28.9
2020-Aug-05 23:10 29.4
2020-Aug-05 23:05 338 29.4
2020-Aug-05 23:00 333 29.4
2020-Aug-05 22:55 008 29.4
2020-Aug-05 22:50 338 29.4
2020-Aug-05 22:45 338 30.0
2020-Aug-05 22:40 30.0
2020-Aug-05 22:35 30.0
2020-Aug-05 22:30 007 0 gusting 1 30.0
2020-Aug-05 22:25 022 0 gusting 2 30.0
2020-Aug-05 22:15 30.6
2020-Aug-05 22:10 344 30.6
2020-Aug-05 22:05 021 1 gusting 7 30.6
2020-Aug-05 22:00 270 30.6
2020-Aug-05 21:55 30.6
2020-Aug-05 21:50 346 30.6
2020-Aug-05 21:45 327 0 gusting 4 31.1
2020-Aug-05 21:40 001 0 gusting 4 31.1
2020-Aug-05 21:35 31.1
2020-Aug-05 21:30 338 0 gusting 6 31.1
2020-Aug-05 21:25 293 31.1
2020-Aug-05 21:20 018 31.1
2020-Aug-05 21:15 354 2 gusting 6 31.7
2020-Aug-05 21:10 004 2 gusting 6 31.7
2020-Aug-05 21:05 346 0 gusting 6 32.2
2020-Aug-05 21:00 32.2
2020-Aug-05 20:55 347 1 gusting 5 32.2
2020-Aug-05 20:50 001 1 gusting 5 32.2
2020-Aug-05 20:45 356 0 gusting 5 32.8
2020-Aug-05 20:40 310 32.8
2020-Aug-05 20:35 350 1 gusting 6 32.8
2020-Aug-05 20:25 259 32.8
2020-Aug-05 20:20 248 32.8
2020-Aug-05 20:15 248 0 gusting 6 32.8
2020-Aug-05 20:10 248 1 gusting 4 33.3
2020-Aug-05 20:05 248 0 gusting 4 33.3
2020-Aug-05 20:00 248 2 gusting 6 33.3
2020-Aug-05 19:55 248 0 gusting 5 33.3
2020-Aug-05 19:50 248 2 gusting 6 33.3
2020-Aug-05 19:45 235 0 gusting 5 33.3
2020-Aug-05 19:40 197 0 gusting 6 33.9
2020-Aug-05 19:35 330 33.3
2020-Aug-05 19:30 33.3
2020-Aug-05 19:25 356 33.3
2020-Aug-05 19:20 316 1 gusting 5 33.9
2020-Aug-05 19:15 303 33.3
2020-Aug-05 19:10 33.3
2020-Aug-05 19:05 309 33.3
2020-Aug-05 19:00 009 1 gusting 6 33.3
2020-Aug-05 18:55 315 0 gusting 6 33.3
2020-Aug-05 18:50 225 33.3
2020-Aug-05 18:45 352 1 gusting 5 33.3
2020-Aug-05 18:40 322 33.3
2020-Aug-05 18:35 245 32.8
2020-Aug-05 18:30 308 32.8
2020-Aug-05 18:25 225 0 gusting 2 32.8
2020-Aug-05 18:20 243 32.8
2020-Aug-05 18:15 225 32.8
2020-Aug-05 18:10 020 0 gusting 4 32.8
2020-Aug-05 18:05 243 32.8
2020-Aug-05 18:00 002 1 gusting 5 32.8
2020-Aug-05 17:50 329 32.2
2020-Aug-05 17:45 31.7
2020-Aug-05 17:40 315 0 gusting 4 31.7
2020-Aug-05 17:35 295 0 gusting 6 31.1
2020-Aug-05 17:25 31.1
2020-Aug-05 17:20 352 2 gusting 6 31.1
2020-Aug-05 17:15 334 5 gusting 6 31.1
2020-Aug-05 17:10 31.7
2020-Aug-05 17:05 344 1 gusting 5 31.7
2020-Aug-05 17:00 270 31.7
2020-Aug-05 16:55 292 31.7
2020-Aug-05 16:50 018 0 gusting 4 31.1
2020-Aug-05 16:45 290 0 gusting 5 31.1
2020-Aug-05 16:40 31.1
2020-Aug-05 16:35 354 5 gusting 7 31.1
2020-Aug-05 16:30 356 4 gusting 6 31.1
2020-Aug-05 16:25 223 0 gusting 5 31.1
2020-Aug-05 16:20 281 31.7
2020-Aug-05 16:15 231 0 gusting 7 31.7
2020-Aug-05 16:10 204 1 gusting 8 31.7
2020-Aug-05 16:05 283 31.1
2020-Aug-05 16:00 305 0 gusting 4 31.1
2020-Aug-05 15:55 248 30.6
2020-Aug-05 15:50 327 30.6
2020-Aug-05 15:45 225 0 gusting 2 30.6
2020-Aug-05 15:40 232 30.0
2020-Aug-05 15:35 214 0 gusting 6 30.0
2020-Aug-05 15:30 202 1 gusting 2 30.0
2020-Aug-05 15:25 30.0
2020-Aug-05 15:15 356 1 gusting 5 30.0
2020-Aug-05 15:10 30.0
2020-Aug-05 15:05 312 29.4
2020-Aug-05 15:00 297 29.4
2020-Aug-05 14:55 292 29.4
2020-Aug-05 14:50 338 30.0
2020-Aug-05 14:40 309 31.7
2020-Aug-05 14:35 271 32.2
2020-Aug-05 14:30 33.3
2020-Aug-05 14:25 34.4
2020-Aug-05 14:20 34.4
2020-Aug-05 14:15 012 34.4
2020-Aug-05 14:10 210 32.2
2020-Aug-05 14:05 338 29.4
2020-Aug-05 14:00 27.8
2020-Aug-05 13:55 003 4 gusting 6 27.2
2020-Aug-05 13:50 26.7
2020-Aug-05 13:45 26.7
2020-Aug-05 13:40 005 1 gusting 2 26.1
2020-Aug-05 13:35 26.1
2020-Aug-05 13:30 26.1
2020-Aug-05 13:25 26.1
2020-Aug-05 13:20 004 25.6
2020-Aug-05 13:15 007 1 gusting 5 25.6
2020-Aug-05 13:10 25.6
2020-Aug-05 13:05 001 1 gusting 6 25.6
2020-Aug-05 13:00 25.6
2020-Aug-05 12:55 25.6
2020-Aug-05 12:50 25.6
2020-Aug-05 12:45 25.6
2020-Aug-05 12:40 25.6
2020-Aug-05 12:35 25.6
2020-Aug-05 12:30 346 0 gusting 5 26.1
2020-Aug-05 12:25 006 1 gusting 4 26.7
2020-Aug-05 12:20 26.7
2020-Aug-05 12:15 26.7
2020-Aug-05 12:10 010 0 gusting 2 26.1
2020-Aug-05 12:05 25.0
2020-Aug-05 12:00 23.9
2020-Aug-05 11:55 23.9
2020-Aug-05 11:50 23.9
2020-Aug-05 11:45 23.9
2020-Aug-05 11:40 23.3
2020-Aug-05 11:35 23.3
2020-Aug-05 11:30 22.2
2020-Aug-05 11:25 22.2
2020-Aug-05 11:20 21.7
2020-Aug-05 11:15 21.7
2020-Aug-05 11:10 21.1
2020-Aug-05 11:05 21.1
2020-Aug-05 11:00 21.1
2020-Aug-05 10:55 20.6
2020-Aug-05 10:50 278 20.6
2020-Aug-05 10:45 270 20.6
2020-Aug-05 10:40 252 20.6
2020-Aug-05 10:35 248 20.6
2020-Aug-05 10:30 248 20.6
2020-Aug-05 10:25 248 20.6
2020-Aug-05 10:20 238 20.6
2020-Aug-05 10:15 225 20.6
2020-Aug-05 10:10 225 20.6
2020-Aug-05 10:05 225 20.6
2020-Aug-05 10:00 225 20.6
2020-Aug-05 09:55 225 20.6
2020-Aug-05 09:50 225 20.6
2020-Aug-05 09:45 225 20.6
2020-Aug-05 09:40 225 20.6
2020-Aug-05 09:35 225 20.6
2020-Aug-05 09:30 225 20.6
2020-Aug-05 09:25 225 20.6
2020-Aug-05 09:20 225 20.6
2020-Aug-05 09:15 225 21.1
2020-Aug-05 09:10 225 21.1
2020-Aug-05 09:05 225 21.1
2020-Aug-05 09:00 225 21.1
2020-Aug-05 08:55 248 21.1
2020-Aug-05 08:50 248 21.1
2020-Aug-05 08:45 248 21.1
2020-Aug-05 08:40 248 21.1
2020-Aug-05 08:35 248 21.1
2020-Aug-05 08:30 248 21.1
2020-Aug-05 08:25 248 21.1
2020-Aug-05 08:20 248 21.1
2020-Aug-05 08:15 225 21.1
2020-Aug-05 08:10 225 21.7
2020-Aug-05 08:05 225 21.7
2020-Aug-05 08:00 229 21.7
2020-Aug-05 07:55 248 21.7
2020-Aug-05 07:50 248 21.7
2020-Aug-05 07:45 248 21.7
2020-Aug-05 07:40 248 21.7
2020-Aug-05 07:35 248 21.7
2020-Aug-05 07:30 248 21.7
2020-Aug-05 07:25 248 21.7
2020-Aug-05 07:20 248 21.7
2020-Aug-05 07:15 248 21.7
2020-Aug-05 07:10 248 21.7
2020-Aug-05 07:05 225 21.7
2020-Aug-05 07:00 225 21.7
2020-Aug-05 06:55 248 21.7
2020-Aug-05 06:50 215 0 gusting 4 21.7
2020-Aug-05 06:45 202 1 gusting 4 21.7
2020-Aug-05 06:40 209 1 gusting 2 21.7
2020-Aug-05 06:35 202 21.7
2020-Aug-05 06:30 225 21.7
2020-Aug-05 06:25 216 3 gusting 6 21.7
2020-Aug-05 06:20 219 0 gusting 4 21.7
2020-Aug-05 06:15 214 0 gusting 2 21.7
2020-Aug-05 06:10 225 1 gusting 2 21.1
2020-Aug-05 06:05 203 21.1
2020-Aug-05 06:00 202 21.1
2020-Aug-05 05:55 225 21.1
2020-Aug-05 05:50 202 21.1
2020-Aug-05 05:45 218 21.1
2020-Aug-05 05:40 214 21.1
2020-Aug-05 05:35 225 0 gusting 1 21.1
2020-Aug-05 05:30 222 21.1
2020-Aug-05 05:25 209 0 gusting 2 21.1
2020-Aug-05 05:20 003 0 gusting 6 21.7
2020-Aug-05 05:15 353 21.7
2020-Aug-05 05:10 248 22.2
2020-Aug-05 05:05 248 22.2
2020-Aug-05 04:55 22.8
2020-Aug-05 04:50 270 22.8
2020-Aug-05 04:45 270 22.8
2020-Aug-05 04:40 202 22.8
2020-Aug-05 04:35 202 23.3
2020-Aug-05 04:30 202 23.9
2020-Aug-05 04:25 216 24.4
2020-Aug-05 04:20 225 25.0
2020-Aug-05 04:15 202 24.4
2020-Aug-05 04:10 217 3 gusting 6 24.4
2020-Aug-05 04:05 356 4 gusting 6 25.0
2020-Aug-05 04:00 205 25.0
2020-Aug-05 03:55 002 0 gusting 5 25.0
2020-Aug-05 03:50 358 1 gusting 6 25.0
2020-Aug-05 03:45 225 25.0
2020-Aug-05 03:40 202 1 gusting 2 25.0
2020-Aug-05 03:35 215 1 gusting 2 25.0
2020-Aug-05 03:30 202 1 gusting 5 25.0
2020-Aug-05 03:25 241 2 gusting 5 25.0
2020-Aug-05 03:20 239 0 gusting 4 25.0
2020-Aug-05 03:15 214 0 gusting 2 25.0
2020-Aug-05 03:10 211 2 gusting 5 25.0
2020-Aug-05 03:05 214 3 gusting 7 25.0
2020-Aug-05 03:00 225 1 gusting 5 25.0
2020-Aug-05 02:55 230 2 gusting 6 25.0
2020-Aug-05 02:50 206 3 gusting 6 25.0
2020-Aug-05 02:45 220 2 gusting 6 25.0
2020-Aug-05 02:40 204 4 gusting 6 25.0
2020-Aug-05 02:30 202 2 gusting 7 25.0
2020-Aug-05 02:25 205 2 gusting 4 25.0
2020-Aug-05 02:20 217 0 gusting 6 25.0
2020-Aug-05 02:15 225 0 gusting 6 25.0
2020-Aug-05 02:10 183 0 gusting 6 25.0
2020-Aug-05 02:05 224 25.6
2020-Aug-05 02:00 214 1 gusting 4 25.6
2020-Aug-05 01:55 202 0 gusting 1 25.6
2020-Aug-05 01:50 202 0 gusting 2 25.6
2020-Aug-05 01:45 213 1 gusting 2 25.6
2020-Aug-05 01:40 225 0 gusting 5 25.6
2020-Aug-05 01:35 210 1 gusting 6 25.6
2020-Aug-05 01:30 193 2 gusting 6 25.6
2020-Aug-05 01:25 216 2 gusting 6 25.6
2020-Aug-05 01:20 225 1 gusting 4 26.1
2020-Aug-05 01:15 208 2 gusting 5 26.1
2020-Aug-05 01:10 218 2 gusting 5 26.1
2020-Aug-05 01:05 203 0 gusting 6 26.1
2020-Aug-05 01:00 201 0 gusting 6 26.1
2020-Aug-05 00:55 207 0 gusting 4 26.7
2020-Aug-05 00:20 214 26.7
2020-Aug-05 00:15 188 6 gusting 6 23.3